SCP
0 0 0 0 0 0 0 0 0 0 0 0 0 0 0 0 0 0 0 0 0 0 0 0 0 0 0 0 0 0 0 0 0 0 0 0 0 0 0 0 0 0 0 0
-0 -0 0 0 0 0 0 0 0 0 0 0 0 0 0 0 0 0 0 0 0 0 0 0 0 0 0 0 0 0 0 0 0 0 0 0 0 0 0 0 0 0 -0 -0
-0 0 0 0 0 0 0 0 0 0 0 0 0 0 0 0 0 0 0 0 0 0 0 0 0 0 0 0 0 0 0 0 0 0 0 0 0 0 0 0 0 0 -0 -0
-0 0 0 0 0 0 0 0 0 0 0 0 0 0 0 0 0 0 0 0 0 0 0 0 0 0 0 0 0 0 0 0 0 0 0 0 0 0 0 0 0 0 -0 -0
0 0 0 0 0 0 0 0 0 0 0 0 0 0 0 0 0 0 0 0 0 0 0 0 0 0 0 0 0 0 0 0 0 0 0 0 0 0 0 0 0 0 -0 -0
0 0 0 0 0 0 0 0 0 0 0 0 0 0 0 0 0 0 0 0 0 0 0 0 0 0 0 0 0 0 0 0 0 0 0 0 0 0 0 0 -0 -0 -0 0
0 0 0 0 0 0 0 0 0 0 0 0 0 0 0 0 0 0 0 0 0 0 0 0 0 0 0 0 0 0 0 -0 0 0 0 0 0 0 0 0 0 0 -0 0
0 0 0 0 0 0 0 0 -0 -0 -0 0 0 0 0 0 0 0 0 0 0 0 0 0 0 0 0 0 0 0 0 0 0 0 0 0 0 0 0 0 0 0 0 0
0 0 0 0 0 0 0 -0 -0 -0 -0 -0 0 0 0 0 0 0 0 0 0 0 -0 0 0 0 0 0 0 0 0 0 0 0 0 0 0 0 0 0 0 0 0 0
0 0 0 0 0 0 0 0 0 0 0 0 0 0 -0 -0 -0 0 0 0 0 0 -0 0 0 0 0 0 0 0 0 0 0 0 0 0 0 0 0 0 0 0 0 0
0 0 0 0 0 0 0 0 0 0 0 0 0 0 0 0 0 0 0 0 0 0 -0 0 0 0 0 0 0 0 0 0 0 0 0 0 0 0 0 0 0 0 0 0
0 0 0 0 0 0 0 0 0 0 0 0 0 0 0 0 0 0 -0 0 0 0 0 0 0 0 0 0 0 0 0 0 0 0 0 0 0 0 0 0 0 0 0 0
0 0 0 0 0 0 0 0 0 0 0 0 0 0 0 0 0 0 -0 0 0 0 0 0 0 0 0 0 0 0 0 0 0 0 0 0 0 0 0 0 0 -0 0 0
0 0 0 0 0 0 0 0 0 0 0 0 0 0 0 0 0 0 0 -0 0 0 0 0 0 0 0 0 0 0 0 0 0 0 0 0 0 0 0 0 0 0 0 0
0 0 0 0 0 0 0 0 0 0 0 0 0 0 0 0 0 0 0 0 0 0 0 0 0 0 0 0 0 0 0 0 0 0 0 0 0 0 0 0 0 0 0 0
0 0 0 0 0 0 0 0 0 0 0 0 0 0 0 0 0 0 0 0 0 0 0 0 0 0 0 0 0 0 0 0 0 0 0 0 0 0 0 0 0 0 0 0
0 0 0 0 0 0 0 0 0 0 0 0 0 0 0 0 0 0 0 0 0 0 0 0 0 0 0 0 0 0 0 0 0 0 0 0 0 0 0 0 0 0 0 0
0 0 0 0 0 0 0 0 0 0 0 0 0 0 0 0 0 0 0 0 0 0 0 0 0 0 0 0 0 0 0 0 0 0 0 0 0 0 0 0 0 0 0 0
0 0 0 0 0 0 0 0 0 0 0 0 0 0 0 0 0 0 0 0 0 0 0 0 0 0 0 0 0 0 0 0 0 0 0 0 0 0 0 0 0 0 0 0
0 0 0 0 0 0 0 0 0 0 0 0 0 0 0 0 0 0 0 0 0 0 0 0 0 0 0 0 0 0 0 0 0 0 0 0 0 0 0 0 0 0 0 0
0 0 0 0 0 0 0 0 0 0 0 0 0 0 0 0 0 0 0 0 0 0 0 0 0 0 0 0 0 0 0 0 0 0 0 0 0 0 0 0 0 0 0 0
0 0 0 0 0 0 0 0 0 0 0 0 0 0 0 0 0 0 0 0 0 0 0 0 0 0 0 0 0 0 0 0 0 0 0 0 0 0 0 0 0 0 0 0
0 0 0 0 0 0 0 0 0 0 0 0 0 0 0 -0 0 0 0 0 0 0 0 0 0 0 0 0 0 0 0 0 0 0 0 0 0 0 0 0 0 0 0 0
0 0 0 0 0 0 0 0 0 0 0 0 0 0 0 0 0 0 0 0 0 0 0 0 0 0 0 0 0 0 0 0 0 0 0 0 0 0 0 0 0 0 0 0
0 0 0 0 0 0 0 0 0 0 0 0 0 0 0 0 0 0 0 0 0 0 0 0 0 0 0 0 0 0 0 0 0 0 0 0 0 0 0 0 0 0 0 0
0 0 0 0 0 0 0 0 0 0 0 0 0 0 0 0 0 0 0 0 0 0 0 0 0 0 0 0 0 0 0 0 0 0 0 0 0 0 0 0 0 0 0 0
0 0 0 0 0 0 0 0 0 0 0 0 0 0 0 0 0 0 0 0 0 0 0 0 0 0 0 0 0 0 0 0 0 0 0 0 0 0 0 0 0 0 0 0
Wind_Speed
2 2 1 1 1 2 3 5 6 5 4 6 7 5 5 4 4 4 4 3 3 3 3 3 4 4 5 5 5 6 6 6 7 6 5 4 4 3 3 2 3 2 1 1
2 2 0 1 3 1 1 2 3 2 4 5 4 2 3 4 4 4 4 4 4 3 3 3 4 5 5 6 6 6 7 7 6 5 4 4 4 4 3 3 2 2 2 2
2 4 3 3 3 1 1 0 2 2 4 4 4 4 4 4 4 3 4 4 4 3 3 4 5 5 6 6 5 6 7 6 5 5 5 5 5 4 4 4 3 3 3 2
1 3 1 4 1 1 3 2 1 1 3 3 3 2 2 3 3 5 5 5 5 4 4 3 3 3 3 3 4 6 6 6 6 6 6 5 4 5 5 4 3 3 3 3
3 1 4 4 1 0 2 1 3 2 4 5 4 3 5 6 4 4 4 4 4 3 3 3 2 1 2 2 3 4 6 6 7 7 6 5 6 6 5 4 4 4 3 4
4 3 4 4 4 3 3 1 4 3 4 4 4 4 5 7 6 5 5 4 4 4 3 3 3 0 2 2 3 5 7 7 6 6 7 7 7 6 4 4 5 4 4 4
3 3 5 5 5 2 3 4 4 1 2 2 1 3 5 6 5 5 5 5 4 3 3 3 2 0 2 2 5 7 5 4 4 6 7 7 6 4 4 4 4 4 4 4
4 3 5 3 3 3 4 2 1 1 1 1 2 3 4 5 6 7 7 6 5 4 5 4 2 0 2 4 6 3 3 3 4 5 5 5 5 4 4 5 5 4 4 3
6 5 3 1 0 1 1 1 1 1 2 2 3 4 5 5 5 6 6 6 5 4 5 5 3 2 4 6 3 2 2 4 4 4 4 4 5 5 4 4 4 4 4 4
1 3 2 2 1 1 1 1 2 2 2 1 2 4 4 5 5 5 5 5 5 5 5 6 5 4 5 5 2 2 3 4 3 3 3 3 3 4 5 5 5 5 5 5
2 4 3 3 2 2 2 2 2 3 2 2 3 4 4 4 5 5 5 5 5 5 5 7 6 6 5 4 2 3 4 4 3 3 4 4 4 4 5 6 7 7 6 6
5 5 3 5 4 2 2 3 3 3 4 4 3 4 5 5 5 5 5 5 5 5 6 7 7 7 6 4 3 4 4 4 3 3 3 3 3 2 4 4 7 9 9 7
4 3 3 4 3 3 3 3 3 3 3 5 4 4 4 4 4 5 5 5 6 7 7 7 7 7 6 4 4 4 5 5 4 4 4 4 4 4 3 2 3 6 8 9
3 1 2 3 4 4 3 3 2 3 3 4 4 4 4 4 5 5 6 6 6 7 7 7 7 8 7 5 4 5 5 6 5 4 5 5 5 5 5 4 3 3 4 8
3 2 4 3 3 3 2 2 2 4 4 5 4 4 5 5 6 7 7 6 6 6 7 7 8 8 7 6 5 6 5 4 4 4 4 5 5 5 5 5 5 3 2 3
4 3 2 2 3 3 3 3 3 4 5 5 5 6 6 6 6 7 6 5 5 7 8 8 9 9 8 6 6 5 5 8 6 4 4 4 5 5 5 5 5 5 5 4
1 3 3 4 5 5 4 4 4 5 5 6 6 7 7 6 6 7 7 6 6 7 7 7 9 9 8 7 6 5 5 6 7 5 5 5 5 6 6 6 6 6 6 6
3 3 4 4 5 5 5 5 5 6 6 7 7 6 6 7 8 9 8 8 7 8 7 7 8 8 8 7 6 5 5 5 5 5 5 5 5 5 6 6 7 7 4 5
2 3 3 3 4 4 4 5 6 6 6 6 6 7 7 8 8 8 8 7 7 9 9 7 12 9 8 8 9 5 5 5 5 5 5 6 5 5 5 6 6 6 6 5
4 4 4 5 4 4 5 6 6 6 6 6 6 7 8 8 8 8 8 8 7 8 9 10 9 7 8 8 9 5 5 6 6 5 5 5 5 6 6 6 6 6 6 7
5 5 6 6 7 6 6 6 6 7 7 6 6 7 8 9 8 7 7 8 9 8 9 12 8 7 7 8 9 5 5 5 6 5 5 5 6 6 6 6 6 7 7 7
5 5 6 7 7 8 7 6 6 7 8 7 8 8 8 9 9 8 8 8 9 12 9 7 6 10 11 11 5 5 6 6 5 5 5 5 6 6 6 6 6 6 6 7
6 6 7 7 8 8 8 7 7 7 8 8 8 8 9 8 6 7 9 8 7 13 10 7 11 17 16 8 5 5 6 6 6 5 5 5 6 6 6 6 6 6 6 6
7 7 8 8 7 7 9 9 8 7 8 9 9 9 8 7 7 7 7 12 15 16 9 11 17 18 15 6 5 5 6 6 6 5 5 5 5 5 5 5 5 5 5 6
8 8 8 7 7 7 8 8 8 8 8 7 9 9 7 6 7 8 8 9 13 14 8 11 17 17 9 5 5 6 5 5 5 5 5 4 4 4 4 4 4 4 4 5
8 7 7 8 7 7 6 6 6 6 6 7 7 7 7 6 7 7 7 8 10 12 9 7 8 9 6 5 5 5 5 5 6 5 4 4 4 4 3 3 4 4 4 4
7 7 6 6 6 6 6 6 6 7 7 7 8 8 7 6 6 7 8 7 7 7 7 7 6 6 5 5 4 5 4 4 4 4 4 4 3 3 3 4 3 3 3 4
Wind_Direction
234 263 219 252 267 174 174 182 184 229 238 279 300 303 311 327 349 1 347 332 295 265 248 231 226 222 213 211 202 192 190 201 214 216 212 211 217 220 218 216 221 225 228 263
355 7 346 318 312 255 210 188 211 259 281 287 301 342 1 359 1 353 337 328 319 302 275 247 231 223 217 215 203 186 196 211 213 207 206 210 215 213 211 217 222 210 220 238
302 316 23 340 310 202 131 148 172 209 266 314 347 359 357 349 348 328 321 323 319 299 273 256 240 219 215 215 196 190 203 211 206 202 207 214 212 204 210 215 212 214 225 227
91 38 228 239 300 133 119 60 12 302 301 311 297 298 1 7 343 326 330 331 323 314 299 283 263 232 217 187 186 199 209 213 208 202 210 211 205 211 215 208 207 214 222 223
116 151 288 303 335 87 145 28 348 330 328 334 336 14 360 3 348 313 307 303 299 294 287 296 297 234 166 172 183 199 215 219 213 204 207 205 210 217 213 202 208 210 212 214
123 152 229 261 296 297 125 348 329 352 346 350 35 29 308 329 335 331 328 326 329 332 336 332 318 221 160 190 196 219 226 225 214 203 203 209 215 215 207 201 209 206 214 215
148 197 259 278 301 42 114 256 303 331 344 19 99 231 277 316 331 337 338 335 342 351 342 318 321 170 203 218 230 236 233 222 211 207 210 212 210 206 199 198 200 204 214 222
142 175 252 311 52 115 215 253 286 310 326 322 292 306 324 337 341 346 348 347 348 346 332 328 332 250 247 252 255 251 224 217 216 214 216 209 200 202 194 191 196 207 213 228
182 203 226 325 205 256 200 238 293 305 318 327 329 327 329 333 336 337 338 335 333 328 325 327 321 282 257 267 274 251 230 229 225 214 211 199 194 197 193 191 199 209 207 220
257 260 264 293 297 326 323 281 298 303 311 335 316 314 322 324 326 327 328 328 326 326 322 317 312 298 272 279 260 228 237 242 230 213 213 207 201 198 198 201 205 209 211 217
278 285 311 323 319 312 321 333 334 334 321 310 308 307 305 308 310 312 314 316 320 315 309 307 309 301 296 293 260 242 243 241 232 220 213 212 212 211 210 215 208 207 215 208
229 240 221 266 288 295 292 298 299 311 319 316 304 295 300 297 298 303 308 312 317 314 310 307 307 303 298 289 261 244 250 245 233 222 217 211 210 242 245 233 230 220 214 208
233 252 226 260 288 295 279 283 288 286 284 297 302 295 295 291 293 301 305 308 307 304 303 304 304 302 302 287 269 251 246 244 237 226 219 212 208 210 231 271 251 229 220 214
252 249 280 276 277 289 286 289 296 307 308 302 298 298 293 290 296 301 299 297 298 302 303 302 300 298 300 292 275 268 259 248 240 229 223 218 214 215 212 209 224 251 235 217
292 245 239 270 292 305 313 323 331 321 320 320 314 308 303 297 294 293 295 300 305 307 307 306 302 299 301 293 279 272 268 259 245 235 227 224 219 215 215 214 215 220 230 222
301 309 288 288 291 301 312 310 300 297 302 304 308 307 302 292 289 294 298 302 305 301 301 301 298 299 301 292 282 277 269 270 263 242 229 223 218 215 215 213 212 211 212 209
307 312 311 303 294 292 286 278 272 279 287 293 294 297 302 304 302 300 299 296 287 285 288 289 291 297 300 293 280 275 273 272 268 256 233 223 218 218 217 213 213 215 217 208
240 249 257 260 269 281 289 291 288 287 283 284 291 297 297 295 290 289 292 296 297 295 289 284 288 296 297 295 287 274 268 265 259 252 241 229 222 219 217 216 214 213 215 208
337 317 305 292 283 281 282 285 285 285 286 290 293 292 288 285 282 282 287 290 291 292 291 289 297 298 292 290 292 276 268 266 263 258 247 237 229 224 221 220 217 210 203 199
328 317 311 305 300 288 283 283 285 288 288 289 289 291 292 291 288 286 284 278 268 267 279 290 291 285 284 284 287 273 266 261 259 257 249 237 229 228 225 223 218 210 204 203
310 309 308 303 299 295 289 285 286 287 289 288 283 282 284 287 289 286 284 284 281 277 283 291 290 282 279 281 282 268 261 259 256 252 247 242 236 232 228 225 220 212 206 203
293 292 293 295 295 294 290 284 281 282 286 287 285 285 287 290 292 290 275 268 277 287 288 281 280 282 286 286 268 259 258 257 257 253 248 243 236 232 229 226 220 215 209 204
276 275 278 279 279 282 288 286 280 279 281 282 282 282 279 277 279 282 288 284 283 289 291 281 287 292 293 285 263 256 257 256 254 252 248 243 237 232 230 226 222 213 207 204
272 272 272 274 277 279 281 281 280 279 278 280 276 273 273 279 281 270 267 287 295 295 288 285 290 293 294 277 262 256 254 254 252 252 250 244 238 232 227 222 220 212 204 198
271 272 274 276 275 270 267 272 277 276 276 277 276 274 269 259 265 278 283 285 292 297 291 293 297 297 291 272 262 255 252 251 252 249 244 242 236 230 223 218 214 206 198 193
268 269 267 262 262 266 269 269 270 273 274 277 279 279 278 276 274 276 280 283 284 290 290 287 290 291 282 274 270 265 259 260 262 254 243 237 230 223 215 209 204 200 193 183
268 268 269 271 269 262 260 261 265 270 270 268 274 277 279 281 283 283 283 282 283 283 284 285 284 282 278 273 273 272 266 257 249 242 239 236 229 219 208 198 194 187 177 168